N2NET Weather Reports


Display with metric or nautical units.
time (UTC)temp
F
wind
direction
speed
MPH
gust
MPH
rain 1hr
in
rain 24hr
in
rain mn
in
humidity
%
barometer
mb
20260508124550 46 311 5.0 10.0 0.00 0.00 0.00 61 1011.0
20260508123056 47 143 1.0 6.0 0.00 0.00 0.00 63 1011.1
20260508121552 46 336 2.0 5.0 0.00 0.00 0.00 64 1011.2
20260508120053 45 248 0.0 6.0 0.00 0.00 0.00 68 1011.3
20260508114551 44 273 0.0 6.0 0.00 0.00 0.00 68 1011.5
20260508113056 43 320 4.0 8.0 0.00 0.00 0.00 68 1011.3
20260508111556 41 326 2.0 6.0 0.00 0.00 0.00 69 1011.1
20260508110106 38 0 0.0 0.0 0.00 0.00 0.00 25 1011.1
20260508104555 37 0 0.0 1.0 0.00 0.00 0.00 24 1010.9
20260508103058 37 111 0.0 1.0 0.00 0.00 0.00 18 1010.9
20260508101552 37 0 0.0 0.0 0.00 0.00 0.00 29 1010.7
20260508100108 36 0 0.0 0.0 0.00 0.00 0.00 14 1010.7
20260508094603 35 0 0.0 0.0 0.00 0.00 0.00 8 1010.4
20260508093052 35 0 0.0 0.0 0.00 0.00 0.00 13 1010.3
20260508091557 35 0 0.0 0.0 0.00 0.00 0.00 27 1010.3
20260508090109 35 0 0.0 0.0 0.00 0.00 0.00 42 1010.2
20260508084551 36 0 0.0 0.0 0.00 0.00 0.00 52 1010.1
20260508083051 37 107 0.0 1.0 0.00 0.00 0.00 61 1009.9
20260508081601 38 0 0.0 0.0 0.00 0.00 0.00 72 1010.1
20260508080052 39 236 0.0 1.0 0.00 0.00 0.00 74 1009.8
20260508074549 39 0 0.0 0.0 0.00 0.00 0.00 75 1009.6
20260508073106 40 0 0.0 0.0 0.00 0.00 0.00 74 1009.7
20260508071548 42 0 0.0 1.0 0.00 0.00 0.00 74 1009.5
20260508070052 42 0 0.0 1.0 0.00 0.00 0.00 68 1009.5
20260508064602 42 287 0.0 1.0 0.00 0.00 0.00 69 1009.5
20260508063057 43 0 0.0 1.0 0.00 0.00 0.00 68 1009.5
20260508061605 43 232 0.0 3.0 0.00 0.00 0.00 64 1009.5
20260508054556 41 266 1.0 4.0 0.00 0.00 0.00 71 1009.6
20260508053059 40 0 0.0 0.0 0.00 0.00 0.00 73 1009.3
20260508051609 41 0 0.0 0.0 0.00 0.00 0.00 74 1009.0
20260508050059 41 0 0.0 0.0 0.00 0.00 0.00 73 1009.4
20260508044553 41 0 0.0 1.0 0.00 0.00 0.00 73 1009.5
20260508043052 41 0 0.0 2.0 0.00 0.00 0.00 73 1009.5
20260508041551 41 0 1.0 2.0 0.00 0.00 0.00 71 1009.5
20260508040057 40 217 0.0 1.0 0.00 0.00 0.00 70 1009.5
20260508034551 39 0 0.0 0.0 0.00 0.00 0.00 60 1009.5
20260508033057 38 0 0.0 0.0 0.00 0.00 0.00 59 1009.6
20260508031557 38 0 0.0 0.0 0.00 0.00 0.00 62 1009.6
20260508024615 38 0 0.0 1.0 0.00 0.00 0.00 63 1009.6
20260508023054 38 0 0.0 1.0 0.00 0.00 0.00 67 1009.7
20260508021558 39 0 0.0 1.0 0.00 0.00 0.00 71 1009.7
20260508020054 40 0 0.0 1.0 0.00 0.00 0.00 74 1009.7
20260508014552 41 0 0.0 1.0 0.00 0.00 0.00 75 1009.6
20260508013050 42 0 0.0 2.0 0.00 0.00 0.00 73 1009.5
20260508011605 43 0 0.0 1.0 0.00 0.00 0.00 73 1009.2
20260508010058 44 0 0.0 0.0 0.00 0.00 0.00 70 1009.0
20260508004559 45 231 0.0 2.0 0.00 0.00 0.00 67 1008.8
20260508003055 45 280 0.0 1.0 0.00 0.00 0.00 67 1008.8
20260508001558 46 0 0.0 1.0 0.00 0.00 0.00 64 1008.3
20260508000053 48 0 0.0 1.0 0.00 0.00 0.00 56 1008.2
20260507234558 50 0 0.0 1.0 0.00 0.00 0.00 50 1008.1
20260507233059 52 314 0.0 2.0 0.00 0.00 0.00 46 1008.0
20260507231552 53 0 1.0 6.0 0.00 0.00 0.00 43 1007.9
20260507230109 53 295 5.0 9.0 0.00 0.00 0.00 39 1007.9
20260507224553 54 242 3.0 12.0 0.00 0.03 0.00 40 1007.7
20260507223055 55 46 5.0 10.0 0.00 0.03 0.00 38 1007.7
20260507221552 55 307 2.0 7.0 0.00 0.03 0.00 42 1007.7
20260507220056 54 326 4.0 18.0 0.00 0.03 0.00 40 1007.9
20260507214551 54 259 6.0 13.0 0.00 0.03 0.00 40 1007.9
20260507213052 54 287 9.0 19.0 0.00 0.03 0.00 41 1007.7
20260507211551 53 295 4.0 14.0 0.00 0.03 0.00 41 1007.8
20260507210104 54 339 10.0 21.0 0.00 0.03 0.00 40 1007.8
20260507204554 53 353 11.0 22.0 0.00 0.03 0.00 41 1007.8
20260507203115 54 208 5.0 14.0 0.00 0.03 0.00 40 1007.7
20260507201552 54 259 4.0 13.0 0.00 0.03 0.00 44 1007.8
20260507200054 53 291 9.0 15.0 0.00 0.03 0.00 42 1007.9
20260507194602 53 300 7.0 15.0 0.00 0.03 0.00 41 1007.9
20260507193055 54 317 7.0 15.0 0.00 0.03 0.00 42 1007.9
20260507191550 56 301 5.0 18.0 0.00 0.03 0.00 40 1008.2
20260507190057 54 257 3.0 16.0 0.00 0.03 0.00 42 1008.4
20260507184552 55 335 3.0 12.0 0.00 0.06 0.00 42 1008.6
20260507183052 55 316 3.0 12.0 0.00 0.06 0.00 42 1008.6
20260507181553 53 328 7.0 13.0 0.00 0.06 0.00 44 1008.8
20260507180053 53 25 3.0 15.0 0.00 0.06 0.00 41 1008.8
20260507174554 55 290 4.0 13.0 0.00 0.15 0.00 42 1009.0
20260507173124 54 274 6.0 17.0 0.00 0.15 0.00 41 1009.0
20260507171558 55 260 6.0 15.0 0.00 0.15 0.00 43 1008.9
20260507170052 55 295 7.0 17.0 0.00 0.15 0.00 38 1009.0
20260507164553 54 305 6.0 15.0 0.00 0.28 0.00 41 1009.2
20260507163051 53 212 7.0 13.0 0.00 0.28 0.00 40 1009.3
20260507161607 54 319 2.0 18.0 0.00 0.28 0.00 42 1009.3
20260507160058 52 231 6.0 15.0 0.00 0.28 0.00 43 1009.5
20260507154553 52 300 6.0 14.0 0.00 0.37 0.00 46 1009.9
20260507153059 52 312 5.0 15.0 0.00 0.37 0.00 43 1010.3
20260507151554 52 316 4.0 10.0 0.00 0.37 0.00 44 1010.1
20260507150052 51 294 4.0 11.0 0.00 0.37 0.00 48 1010.1
20260507144603 50 319 8.0 12.0 0.00 0.45 0.00 46 1010.3
20260507143101 50 307 5.0 13.0 0.00 0.45 0.00 47 1010.1
20260507141559 50 232 6.0 13.0 0.00 0.45 0.00 45 1010.3
20260507140056 49 300 3.0 10.0 0.00 0.45 0.00 47 1010.4
20260507134556 49 265 1.0 5.0 0.00 0.49 0.00 51 1010.6
20260507133139 48 325 3.0 6.0 0.00 0.49 0.00 51 1010.7
20260507131550 47 86 2.0 8.0 0.00 0.49 0.00 53 1010.7
20260507130104 46 346 3.0 8.0 0.00 0.49 0.00 55 1010.7